RYR86DZ EBCI-LFMU

Flight info

Callsign RYR86DZ
Flight time 1h 33m
Altitude 31000
Route CIV N872 LESDO DCT KOVIN DCT DUCRA UM728 RESMI UN857 DISAK DCT DIRMO DCT ETAMO DCT ADEKA DCT MOKDI DCT MEN J27 AFRIC
Aircraft B38M/M-SDE1FGHILORVWXY/HB1

Departure

Time 2026-04-28 17:53
Airport Brussels South Charleroi Airport (EBCI)

Arrival

Time 2026-04-28 19:26
Airport Béziers Vias airport (LFMU)
Time Latitude Longitude Altitude Speed Heading
2026-04-28 17:23 50.45850 4.45409 590 ft 0 kts 245°
2026-04-28 17:39 50.45854 4.45422 599 ft 4 kts 238°
2026-04-28 17:39 50.45897 4.45438 599 ft 4 kts 171°
2026-04-28 17:40 50.45911 4.45440 598 ft 1 kts 246°
2026-04-28 17:40 50.45911 4.45441 598 ft 0 kts 247°
2026-04-28 17:49 50.45906 4.45423 599 ft 7 kts 247°
2026-04-28 17:49 50.45882 4.45337 600 ft 8 kts 246°
2026-04-28 17:49 50.45857 4.45251 601 ft 9 kts 245°
2026-04-28 17:50 50.45829 4.45154 602 ft 10 kts 246°
2026-04-28 17:50 50.45798 4.45047 603 ft 11 kts 245°
2026-04-28 17:50 50.45765 4.44931 605 ft 12 kts 246°
2026-04-28 17:50 50.45728 4.44806 606 ft 13 kts 243°
2026-04-28 17:51 50.45699 4.44688 608 ft 10 kts 270°
2026-04-28 17:51 50.45738 4.44627 619 ft 7 kts 329°
2026-04-28 17:51 50.45778 4.44605 625 ft 4 kts
2026-04-28 17:51 50.45793 4.44627 621 ft 4 kts 60°
2026-04-28 17:52 50.45794 4.44630 610 ft 0 kts 61°
2026-04-28 17:52 50.45861 4.44855 619 ft 60 kts 65°
2026-04-28 17:52 50.46573 4.47258 810 ft 159 kts 64°
2026-04-28 17:53 50.47037 4.48857 1516 ft 161 kts 64°
2026-04-28 17:53 50.47578 4.50362 2376 ft 155 kts 49°
2026-04-28 17:53 50.48367 4.51684 2840 ft 177 kts 49°
2026-04-28 17:53 50.49247 4.53137 3435 ft 190 kts 49°
2026-04-28 17:54 50.50185 4.54668 3917 ft 199 kts 49°
2026-04-28 17:54 50.51150 4.56260 4138 ft 213 kts 49°
2026-04-28 17:54 50.52205 4.58032 4743 ft 226 kts 50°
2026-04-28 17:54 50.53285 4.59707 5934 ft 213 kts 38°
2026-04-28 17:55 50.54664 4.60584 6837 ft 221 kts 11°
2026-04-28 17:55 50.56241 4.60329 7500 ft 239 kts 344°
2026-04-28 17:55 50.57632 4.58841 8274 ft 251 kts 314°
2026-04-28 17:55 50.58489 4.56339 8793 ft 268 kts 283°
2026-04-28 17:56 50.58537 4.53480 9788 ft 263 kts 262°
2026-04-28 17:56 50.58188 4.50560 10283 ft 279 kts 256°
2026-04-28 17:56 50.57696 4.47601 11083 ft 281 kts 252°
2026-04-28 17:56 50.57137 4.44577 11661 ft 296 kts 252°
2026-04-28 17:57 50.56544 4.41369 12062 ft 316 kts 252°
2026-04-28 17:57 50.55918 4.37970 12571 ft 330 kts 252°
2026-04-28 17:57 50.55276 4.34479 13281 ft 335 kts 252°
2026-04-28 17:57 50.54625 4.30957 14124 ft 338 kts 252°
2026-04-28 17:58 50.53962 4.27380 14947 ft 342 kts 252°
2026-04-28 17:58 50.53284 4.23783 15771 ft 344 kts 252°
2026-04-28 17:58 50.52601 4.20166 16552 ft 347 kts 252°
2026-04-28 17:58 50.52144 4.17749 17053 ft 350 kts 252°
2026-04-28 17:59 50.51443 4.14076 17803 ft 352 kts 252°
2026-04-28 17:59 50.50852 4.11003 18385 ft 355 kts 252°
2026-04-28 17:59 50.50135 4.07276 18941 ft 361 kts 252°
2026-04-28 17:59 50.49409 4.03502 19097 ft 359 kts 252°
2026-04-28 18:00 50.48537 3.99847 19110 ft 357 kts 239°
2026-04-28 18:00 50.47074 3.96715 19133 ft 356 kts 233°
2026-04-28 18:00 50.45636 3.93548 19130 ft 357 kts 234°
2026-04-28 18:00 50.44215 3.90353 19124 ft 357 kts 234°
2026-04-28 18:01 50.42806 3.87153 19122 ft 357 kts 234°
2026-04-28 18:01 50.41400 3.83939 19120 ft 357 kts 234°
2026-04-28 18:01 50.39999 3.80728 19119 ft 357 kts 234°
2026-04-28 18:01 50.38598 3.77520 19121 ft 357 kts 234°
2026-04-28 18:02 50.37197 3.74313 19119 ft 357 kts 234°
2026-04-28 18:02 50.35793 3.71105 19119 ft 357 kts 234°
2026-04-28 18:02 50.34181 3.68193 19105 ft 354 kts 217°
2026-04-28 18:02 50.32053 3.66262 19123 ft 354 kts 204°
2026-04-28 18:03 50.29816 3.64650 19110 ft 354 kts 204°
2026-04-28 18:03 50.27569 3.63071 19110 ft 354 kts 204°
2026-04-28 18:03 50.25314 3.61515 19110 ft 354 kts 203°
2026-04-28 18:03 50.23058 3.59978 19111 ft 354 kts 203°
2026-04-28 18:04 50.20795 3.58447 19111 ft 354 kts 203°
2026-04-28 18:04 50.18562 3.56944 19109 ft 354 kts 203°
2026-04-28 18:04 50.16269 3.55403 19110 ft 354 kts 203°
2026-04-28 18:04 50.14008 3.53885 19104 ft 354 kts 203°
2026-04-28 18:05 50.11740 3.52365 19103 ft 354 kts 203°
2026-04-28 18:05 50.10242 3.51362 19102 ft 354 kts 203°
2026-04-28 18:05 50.07218 3.49340 19102 ft 354 kts 203°
2026-04-28 18:05 50.04980 3.47844 19101 ft 354 kts 203°
2026-04-28 18:06 50.02715 3.46332 19097 ft 354 kts 203°
2026-04-28 18:06 50.00448 3.44820 19094 ft 354 kts 202°
2026-04-28 18:06 49.98186 3.43314 19094 ft 354 kts 203°
2026-04-28 18:06 49.95928 3.41811 19093 ft 352 kts 203°
2026-04-28 18:07 49.93649 3.40296 19092 ft 351 kts 203°
2026-04-28 18:07 49.91432 3.38823 19093 ft 351 kts 203°
2026-04-28 18:07 49.89182 3.37330 19080 ft 351 kts 203°
2026-04-28 18:07 49.86936 3.35842 19079 ft 351 kts 203°
2026-04-28 18:08 49.84691 3.34356 19078 ft 350 kts 203°
2026-04-28 18:08 49.82452 3.32875 19064 ft 350 kts 203°
2026-04-28 18:08 49.80209 3.31393 19078 ft 350 kts 203°
2026-04-28 18:08 49.77966 3.29910 19081 ft 352 kts 203°
2026-04-28 18:09 49.75706 3.28419 19541 ft 353 kts 203°
2026-04-28 18:09 49.73437 3.26923 20227 ft 355 kts 203°
2026-04-28 18:09 49.71157 3.25422 20869 ft 357 kts 203°
2026-04-28 18:09 49.68860 3.23911 21476 ft 360 kts 203°
2026-04-28 18:10 49.66549 3.22391 22080 ft 362 kts 203°
2026-04-28 18:10 49.64223 3.20864 22658 ft 365 kts 204°
2026-04-28 18:10 49.61876 3.19325 23232 ft 367 kts 204°
2026-04-28 18:10 49.59518 3.17780 23789 ft 369 kts 204°
2026-04-28 18:11 49.57140 3.16225 24329 ft 372 kts 204°
2026-04-28 18:11 49.54754 3.14665 24845 ft 374 kts 204°
2026-04-28 18:11 49.52352 3.13096 25351 ft 376 kts 204°
2026-04-28 18:11 49.49939 3.11521 25873 ft 377 kts 204°
2026-04-28 18:12 49.47607 3.09685 26332 ft 377 kts 215°
2026-04-28 18:12 49.45431 3.07420 26822 ft 379 kts 214°
2026-04-28 18:12 49.43225 3.05180 27282 ft 380 kts 214°
2026-04-28 18:12 49.41012 3.02933 27723 ft 382 kts 215°
2026-04-28 18:13 49.38791 3.00679 28177 ft 383 kts 215°
2026-04-28 18:13 49.36601 2.98457 28677 ft 382 kts 215°
2026-04-28 18:13 49.34388 2.96216 29239 ft 379 kts 215°
2026-04-28 18:13 49.32197 2.93999 29759 ft 377 kts 215°
2026-04-28 18:14 49.30008 2.91786 30304 ft 374 kts 216°
2026-04-28 18:14 49.27849 2.89607 30820 ft 372 kts 216°
2026-04-28 18:14 49.25678 2.87417 31032 ft 375 kts 216°
2026-04-28 18:14 49.23804 2.85530 31062 ft 372 kts 215°
2026-04-28 18:15 49.19678 2.81378 31071 ft 375 kts 215°
2026-04-28 18:15 49.15323 2.77006 31044 ft 374 kts 215°
2026-04-28 18:16 49.10962 2.72636 31045 ft 374 kts 215°
2026-04-28 18:16 49.06616 2.68292 31043 ft 373 kts 215°
2026-04-28 18:17 49.02308 2.63993 31044 ft 372 kts 215°
2026-04-28 18:17 48.97948 2.59651 31045 ft 372 kts 215°
2026-04-28 18:18 48.93619 2.55352 31043 ft 371 kts 215°
2026-04-28 18:18 48.90034 2.51797 31044 ft 370 kts 215°
2026-04-28 18:19 48.84993 2.46809 31044 ft 369 kts 215°
2026-04-28 18:19 48.80688 2.42559 31045 ft 368 kts 215°
2026-04-28 18:20 48.76403 2.38337 31045 ft 367 kts 215°
2026-04-28 18:20 48.72150 2.34156 31044 ft 366 kts 215°
2026-04-28 18:21 48.67881 2.29967 31044 ft 365 kts 215°
2026-04-28 18:21 48.63632 2.25806 31046 ft 364 kts 215°
2026-04-28 18:22 48.59385 2.21656 31043 ft 362 kts 215°
2026-04-28 18:22 48.54770 2.18659 31054 ft 369 kts 196°
2026-04-28 18:23 48.49771 2.16942 31044 ft 368 kts 197°
2026-04-28 18:23 48.44763 2.15289 31044 ft 367 kts 197°
2026-04-28 18:24 48.40579 2.13935 31034 ft 367 kts 197°
2026-04-28 18:24 48.34779 2.12067 31037 ft 366 kts 197°
2026-04-28 18:25 48.29800 2.10479 31028 ft 366 kts 195°
2026-04-28 18:25 48.27233 2.10342 31018 ft 376 kts 179°
2026-04-28 18:26 48.22017 2.11378 31019 ft 378 kts 179°
2026-04-28 18:26 48.16807 2.12441 31018 ft 378 kts 179°
2026-04-28 18:27 48.11595 2.13175 31019 ft 373 kts 185°
2026-04-28 18:27 48.06408 2.13417 31017 ft 373 kts 184°
2026-04-28 18:28 48.01216 2.13718 31019 ft 373 kts 184°
2026-04-28 18:28 47.96029 2.14032 31018 ft 373 kts 184°
2026-04-28 18:29 47.90843 2.14346 31018 ft 373 kts 184°
2026-04-28 18:29 47.85650 2.14659 31018 ft 373 kts 184°
2026-04-28 18:30 47.80458 2.14972 31016 ft 373 kts 184°
2026-04-28 18:30 47.75265 2.15285 31019 ft 374 kts 184°
2026-04-28 18:31 47.70072 2.15597 31011 ft 374 kts 184°
2026-04-28 18:31 47.64911 2.15907 31007 ft 374 kts 184°
2026-04-28 18:32 47.59701 2.16219 30999 ft 375 kts 184°
2026-04-28 18:32 47.54487 2.16530 30999 ft 375 kts 184°
2026-04-28 18:33 47.49271 2.16841 30992 ft 376 kts 184°
2026-04-28 18:33 47.44048 2.17152 30989 ft 376 kts 184°
2026-04-28 18:34 47.38813 2.17462 30982 ft 376 kts 184°
2026-04-28 18:34 47.33576 2.17774 30980 ft 377 kts 184°
2026-04-28 18:35 47.28336 2.18083 30976 ft 377 kts 184°
2026-04-28 18:35 47.23079 2.18393 30974 ft 378 kts 184°
2026-04-28 18:36 47.17804 2.18704 30972 ft 379 kts 184°
2026-04-28 18:36 47.12538 2.19014 30972 ft 380 kts 184°
2026-04-28 18:37 47.07296 2.20271 30978 ft 394 kts 165°
2026-04-28 18:37 47.02196 2.23187 30972 ft 396 kts 165°
2026-04-28 18:38 46.97073 2.26157 30973 ft 397 kts 165°
2026-04-28 18:38 46.91944 2.29145 30970 ft 397 kts 165°
2026-04-28 18:39 46.86802 2.32138 30971 ft 398 kts 165°
2026-04-28 18:39 46.81848 2.35837 30978 ft 408 kts 152°
2026-04-28 18:40 46.77099 2.40372 30972 ft 408 kts 154°
2026-04-28 18:40 46.72341 2.44900 30970 ft 409 kts 153°
2026-04-28 18:41 46.67611 2.49395 30973 ft 408 kts 153°
2026-04-28 18:41 46.62847 2.53913 30973 ft 408 kts 153°
2026-04-28 18:42 46.58087 2.58418 30970 ft 409 kts 153°
2026-04-28 18:42 46.53324 2.62918 30972 ft 408 kts 153°
2026-04-28 18:43 46.48553 2.67412 30979 ft 409 kts 153°
2026-04-28 18:43 46.43777 2.71903 30982 ft 409 kts 153°
2026-04-28 18:44 46.38992 2.76394 30987 ft 409 kts 153°
2026-04-28 18:44 46.31824 2.83102 30991 ft 409 kts 153°
2026-04-28 18:45 46.27849 2.86813 30990 ft 409 kts 153°
2026-04-28 18:45 46.23073 2.91264 30989 ft 409 kts 153°
2026-04-28 18:46 46.18282 2.95718 30990 ft 409 kts 153°
2026-04-28 18:46 46.13497 3.00158 30986 ft 409 kts 153°
2026-04-28 18:47 46.08702 3.04598 30985 ft 409 kts 153°
2026-04-28 18:47 46.03907 3.09029 30992 ft 409 kts 153°
2026-04-28 18:48 45.99109 3.13455 30989 ft 409 kts 153°
2026-04-28 18:48 45.94150 3.17277 30979 ft 397 kts 172°
2026-04-28 18:49 45.91451 3.17703 30999 ft 389 kts 184°
2026-04-28 18:49 45.89650 3.17758 30990 ft 391 kts 183°
2026-04-28 18:49 45.83302 3.17828 30989 ft 390 kts 184°
2026-04-28 18:50 45.77875 3.17784 30991 ft 390 kts 185°
2026-04-28 18:50 45.72446 3.17715 30990 ft 390 kts 185°
2026-04-28 18:51 45.66998 3.17642 30990 ft 390 kts 185°
2026-04-28 18:51 45.61566 3.17569 30986 ft 390 kts 185°
2026-04-28 18:52 45.56135 3.17496 31000 ft 390 kts 185°
2026-04-28 18:52 45.50744 3.17424 30998 ft 390 kts 185°
2026-04-28 18:53 45.45311 3.17353 31002 ft 391 kts 184°
2026-04-28 18:53 45.39876 3.17280 30996 ft 390 kts 184°
2026-04-28 18:54 45.34439 3.17207 31000 ft 390 kts 184°
2026-04-28 18:54 45.29003 3.17135 30998 ft 391 kts 184°
2026-04-28 18:55 45.23559 3.17063 31002 ft 391 kts 184°
2026-04-28 18:55 45.18122 3.16993 31006 ft 391 kts 184°
2026-04-28 18:56 45.12670 3.16920 31009 ft 392 kts 184°
2026-04-28 18:56 45.07255 3.16849 31011 ft 392 kts 184°
2026-04-28 18:57 45.01803 3.16777 31005 ft 392 kts 184°
2026-04-28 18:57 44.96350 3.16706 31011 ft 392 kts 184°
2026-04-28 18:58 44.90901 3.16635 31009 ft 392 kts 184°
2026-04-28 18:58 44.85436 3.16562 31007 ft 392 kts 184°
2026-04-28 18:59 44.80079 3.16493 30939 ft 373 kts 184°
2026-04-28 18:59 44.77512 3.16459 30681 ft 366 kts 184°
2026-04-28 18:59 44.74974 3.16426 30234 ft 364 kts 184°
2026-04-28 19:00 44.72446 3.16393 29774 ft 363 kts 184°
2026-04-28 19:00 44.69927 3.16361 29345 ft 361 kts 184°
2026-04-28 19:00 44.67427 3.16328 28927 ft 359 kts 184°
2026-04-28 19:00 44.64931 3.16295 28497 ft 357 kts 184°
2026-04-28 19:01 44.62453 3.16263 28095 ft 355 kts 184°
2026-04-28 19:01 44.60009 3.15955 27616 ft 350 kts 197°
2026-04-28 19:01 44.57668 3.15078 27244 ft 347 kts 197°
2026-04-28 19:01 44.55365 3.14275 26876 ft 344 kts 197°
2026-04-28 19:02 44.53021 3.13448 26487 ft 342 kts 197°
2026-04-28 19:02 44.50750 3.12641 26118 ft 340 kts 197°
2026-04-28 19:02 44.48469 3.11830 25743 ft 338 kts 197°
2026-04-28 19:02 44.46200 3.11024 25366 ft 336 kts 197°
2026-04-28 19:03 44.43945 3.10222 24999 ft 333 kts 197°
2026-04-28 19:03 44.41701 3.09426 24638 ft 331 kts 197°
2026-04-28 19:03 44.39479 3.08637 24275 ft 329 kts 197°
2026-04-28 19:03 44.37270 3.07854 23917 ft 326 kts 197°
2026-04-28 19:04 44.35079 3.07078 23565 ft 324 kts 197°
2026-04-28 19:04 44.32900 3.06306 23210 ft 322 kts 197°
2026-04-28 19:04 44.30741 3.05542 22857 ft 320 kts 197°
2026-04-28 19:04 44.28589 3.04781 22508 ft 317 kts 197°
2026-04-28 19:05 44.26459 3.04026 22173 ft 315 kts 196°
2026-04-28 19:05 44.24323 3.03275 21836 ft 316 kts 197°
2026-04-28 19:05 44.22196 3.02525 21500 ft 314 kts 197°
2026-04-28 19:05 44.20082 3.01782 21138 ft 313 kts 197°
2026-04-28 19:06 44.17981 3.01040 20812 ft 309 kts 197°
2026-04-28 19:06 44.16610 3.00556 20597 ft 308 kts 196°
2026-04-28 19:06 44.13849 2.99572 20102 ft 304 kts 197°
2026-04-28 19:06 44.11801 2.98860 19786 ft 302 kts 197°
2026-04-28 19:07 44.09766 2.98152 19448 ft 299 kts 196°
2026-04-28 19:07 44.07780 2.97462 19146 ft 297 kts 196°
2026-04-28 19:07 44.05788 2.96765 18838 ft 293 kts 196°
2026-04-28 19:07 44.03817 2.96078 18528 ft 291 kts 196°
2026-04-28 19:08 44.01864 2.95398 18219 ft 288 kts 196°
2026-04-28 19:08 43.99898 2.94715 17889 ft 294 kts 196°
2026-04-28 19:08 43.97901 2.94019 17568 ft 298 kts 196°
2026-04-28 19:08 43.95885 2.93317 17234 ft 299 kts 196°
2026-04-28 19:09 43.93865 2.92614 16923 ft 299 kts 196°
2026-04-28 19:09 43.91859 2.91920 16603 ft 295 kts 196°
2026-04-28 19:09 43.89878 2.91232 16281 ft 293 kts 195°
2026-04-28 19:09 43.87912 2.90551 15968 ft 289 kts 195°
2026-04-28 19:10 43.85966 2.89875 15648 ft 287 kts 195°
2026-04-28 19:10 43.84035 2.89207 15332 ft 285 kts 195°
2026-04-28 19:10 43.82125 2.88545 15018 ft 282 kts 195°
2026-04-28 19:10 43.80225 2.87887 14708 ft 280 kts 195°
2026-04-28 19:11 43.78305 2.87465 14365 ft 281 kts 179°
2026-04-28 19:11 43.76415 2.88132 14029 ft 283 kts 155°
2026-04-28 19:11 43.74740 2.89550 13764 ft 282 kts 149°
2026-04-28 19:11 43.73077 2.91042 13443 ft 287 kts 149°
2026-04-28 19:12 43.71397 2.92573 13153 ft 291 kts 148°
2026-04-28 19:12 43.69705 2.94129 12840 ft 292 kts 148°
2026-04-28 19:12 43.68021 2.95686 12531 ft 292 kts 148°
2026-04-28 19:12 43.66328 2.97256 12219 ft 292 kts 148°
2026-04-28 19:13 43.64652 2.98812 11907 ft 289 kts 148°
2026-04-28 19:13 43.62987 3.00357 11594 ft 287 kts 148°
2026-04-28 19:13 43.61335 3.01891 11283 ft 285 kts 148°
2026-04-28 19:13 43.59721 3.03389 10980 ft 282 kts 147°
2026-04-28 19:14 43.58097 3.04894 10670 ft 280 kts 147°
2026-04-28 19:14 43.56467 3.06404 10375 ft 278 kts 147°
2026-04-28 19:14 43.54869 3.07885 10096 ft 274 kts 147°
2026-04-28 19:14 43.53320 3.09318 9843 ft 270 kts 147°
2026-04-28 19:15 43.51766 3.10755 9566 ft 268 kts 147°
2026-04-28 19:15 43.50222 3.12181 9270 ft 266 kts 147°
2026-04-28 19:15 43.48692 3.13600 8977 ft 265 kts 147°
2026-04-28 19:15 43.47680 3.14534 8767 ft 264 kts 147°
2026-04-28 19:16 43.45639 3.16407 8350 ft 261 kts 146°
2026-04-28 19:16 43.44165 3.17774 8073 ft 250 kts 147°
2026-04-28 19:16 43.42746 3.19084 7948 ft 243 kts 147°
2026-04-28 19:16 43.41340 3.20374 7818 ft 243 kts 147°
2026-04-28 19:17 43.39937 3.21662 7717 ft 242 kts 147°
2026-04-28 19:17 43.38537 3.22948 7574 ft 242 kts 147°
2026-04-28 19:17 43.37140 3.24232 7433 ft 241 kts 147°
2026-04-28 19:17 43.35745 3.25514 7287 ft 241 kts 147°
2026-04-28 19:18 43.34350 3.26794 7133 ft 241 kts 147°
2026-04-28 19:18 43.32809 3.27639 6792 ft 242 kts 177°
2026-04-28 19:18 43.31198 3.27054 6433 ft 245 kts 212°
2026-04-28 19:18 43.29816 3.25698 6132 ft 243 kts 213°
2026-04-28 19:19 43.28434 3.24401 5794 ft 240 kts 213°
2026-04-28 19:19 43.27063 3.23127 5464 ft 233 kts 212°
2026-04-28 19:19 43.25741 3.21906 5145 ft 226 kts 212°
2026-04-28 19:19 43.24528 3.20615 4796 ft 222 kts 230°
2026-04-28 19:20 43.23976 3.18682 4518 ft 214 kts 265°
2026-04-28 19:20 43.24202 3.16730 4325 ft 201 kts 282°
2026-04-28 19:20 43.24537 3.14938 4147 ft 189 kts 282°
2026-04-28 19:20 43.24863 3.13227 3966 ft 182 kts 285°
2026-04-28 19:21 43.25554 3.11793 3731 ft 185 kts 321°
2026-04-28 19:21 43.26721 3.11108 3555 ft 185 kts 354°
2026-04-28 19:21 43.28008 3.11097 3449 ft 186 kts
2026-04-28 19:21 43.29287 3.11187 3273 ft 187 kts
2026-04-28 19:22 43.30599 3.11295 3091 ft 186 kts
2026-04-28 19:22 43.31017 3.11331 3033 ft 187 kts
2026-04-28 19:22 43.32915 3.12446 2624 ft 178 kts 57°
2026-04-28 19:22 43.33313 3.13998 2472 ft 172 kts 89°
2026-04-28 19:23 43.33306 3.15632 2360 ft 172 kts 94°
2026-04-28 19:23 43.33262 3.17265 2206 ft 170 kts 94°
2026-04-28 19:23 43.33197 3.18885 2028 ft 170 kts 95°
2026-04-28 19:23 43.33126 3.20498 1885 ft 169 kts 95°
2026-04-28 19:24 43.33050 3.22117 1669 ft 170 kts 95°
2026-04-28 19:24 43.32970 3.23737 1418 ft 170 kts 95°
2026-04-28 19:24 43.32892 3.25288 1174 ft 157 kts 94°
2026-04-28 19:24 43.32817 3.26766 938 ft 150 kts 95°
2026-04-28 19:25 43.32740 3.28145 722 ft 140 kts 95°
2026-04-28 19:25 43.32657 3.29435 519 ft 133 kts 96°
2026-04-28 19:25 43.32576 3.30664 434 ft 131 kts 94°
2026-04-28 19:25 43.32517 3.31926 398 ft 134 kts 96°
2026-04-28 19:26 43.32458 3.33212 236 ft 135 kts 95°
2026-04-28 19:26 43.32388 3.34480 69 ft 129 kts 95°
2026-04-28 19:26 43.32332 3.35504 52 ft 74 kts 94°
2026-04-28 19:26 43.32300 3.35970 55 ft 37 kts 104°
2026-04-28 19:27 43.32308 3.36065 54 ft 1 kts 308°
2026-04-28 19:27 43.32308 3.36044 51 ft 7 kts 266°
2026-04-28 19:27 43.32307 3.35965 51 ft 9 kts 275°
2026-04-28 19:27 43.32312 3.35876 50 ft 9 kts 274°
2026-04-28 19:28 43.32306 3.35802 56 ft 7 kts 227°
2026-04-28 19:28 43.32251 3.35784 56 ft 10 kts 184°
2026-04-28 19:28 43.32175 3.35776 56 ft 12 kts 185°
2026-04-28 19:28 43.32126 3.35754 56 ft 6 kts 241°
2026-04-28 19:29 43.32121 3.35686 51 ft 8 kts 272°
2026-04-28 19:29 43.32124 3.35628 53 ft 10 kts 274°
2026-04-28 19:29 43.32106 3.35538 52 ft 5 kts 205°
2026-04-28 19:29 43.32089 3.35502 58 ft 5 kts 262°
2026-04-28 19:30 43.32103 3.35452 58 ft 5 kts 297°
2026-04-28 19:30 43.32116 3.35426 58 ft 6 kts 321°
2026-04-28 19:30 43.32156 3.35393 53 ft 7 kts 324°
2026-04-28 19:30 43.32176 3.35321 55 ft 9 kts 272°
2026-04-28 19:31 43.32182 3.35244 59 ft 7 kts 275°
2026-04-28 19:31 43.32166 3.35219 59 ft 2 kts 193°
2026-04-28 19:31 43.32156 3.35223 59 ft 1 kts 156°
2026-04-28 19:31 43.32150 3.35231 59 ft 2 kts 132°
2026-04-28 19:32 43.32149 3.35232 59 ft 0 kts 130°